Tracking 35331 objects as of 17-Sep-2026
HD Live streaming from Space Station
objects crossing your sky now

DRAGONFLY


DRAGONFLY is no longer on orbit
DRAGONFLY is classified as:


NORAD ID: 65729
Int'l Code: 1998-067XH
Launch date: November 20, 1998
Source: Japan (JPN)
Launch site: TYURATAM MISSILE AND SPACE COMPLEX (TTMTR)
Decay date: 2026-01-31

Uplink (MHz): 145.825/435.375
Downlink (MHz): 437.375
Beacon (MHz): 437.375
Mode: 4k8 GMSK APRS CW*
Call sign: JG6YOW
Status: Active


Uplink (MHz): 145.825/435.375
Downlink (MHz): 437.375
Beacon (MHz): 437.375
Mode: 4k8 GMSK APRS CW*
Call sign: JG6YOW
Status: Active

Your satellite tracking list
Your tracking list is empty




NASA's NSSDC Master Catalog

Two Line Element Set (TLE):
1 65729U 98067XH  26031.05194254  .08662331  12285-4  96629-3 0  9997
2 65729  51.6000 237.6139 0006569 265.0285  94.9990 16.36242872 20999
Source of the keplerian elements: AFSPC